Location: Hutchins
(43.0916°N, 93.8811°W)
Time: 02:44:00
(UTC+00:00)

ACS3 Solar Sail - Pass Details

Date: 20 October 2024
Orbit: 961 x 1022 km, 97.5° (Epoch: 03 November)

Event Time Altitude Azimuth Distance (km) Brightness Sun altitude
Exits shadow 01:44:14 60° 111° (ESE) 1,168 1.8 -26.0°
Maximum altitude 01:45:03 66° 73° (ENE) 1,120 1.8 -26.2°
Drops below altitude 10° 01:51:22 10° 353° (N) 2,827 4.4 -27.3°
Sets 01:53:53 0° 351° (N) 3,778 5.1 -27.7°
